Location: Newark
(45.5000°N, 11.4167°E)
Time: 20:17:40
(UTC+00:00)

Transit 2A Rocket - Pass Details

Date: 27 August 2019
Orbit: 594 x 909 km, 66.7° (Epoch: 22 October)

Event Time Altitude Azimuth Distance (km) Brightness Sun altitude
Rises 17:46:45 0° 223° (SW) 3,428 8.8 1.8°
Reaches altitude 10° 17:49:20 10° 227° (SW) 2,455 8.2 1.3°
Maximum altitude 17:54:55 58° 306° (NW) 926 6.0 0.4°
Drops below altitude 10° 18:00:03 10° 26° (NNE) 2,263 7.3 -0.5°
Sets 18:02:22 0° 31° (NNE) 3,138 8.0 -0.9°
